Simultaneous Nadir Overpasses (SNOs) Predictions

Prediction of SNOs between AQUA and NPP Satellite Orbit:

Table of predicted SNOs for the next 14.0 days since TLE Epoch: 12/23/2016
Index Date (AQUA) Time (AQUA) Lat,Lon (AQUA) SZA (AQUA ) Date (NPP) Time (NPP) Lat,Lon (NPP) SZA (NPP ) Distance(km) Time Diff (sec)
1 12/23/2016 13:15:43 -75.08, 37.50 59.03 12/23/2016 13:14:50 -75.07, 37.49 58.97 0.56 53
2 12/23/2016 14:04:44 76.28,-151.32 119.69 12/23/2016 14:05:08 76.28,-151.32 119.67 0.12 24
3 12/26/2016 05:32:02 -75.56, 154.73 59.54 12/26/2016 05:31:33 -75.57, 154.74 59.51 0.43 29
4 12/26/2016 06:21:04 76.70, -34.02 119.22 12/26/2016 06:21:52 76.71, -33.97 119.17 1.36 48
5 12/28/2016 21:05:32 53.75, 78.73 140.01 12/28/2016 21:04:20 53.99, 77.31 140.69 96.91 72
6 12/28/2016 21:48:21 -76.08, -87.83 60.15 12/28/2016 21:48:16 -76.09, -87.76 60.17 2.13 5
7 12/28/2016 22:37:32 76.78, 82.13 119.08 12/28/2016 22:38:45 76.77, 82.04 119.04 2.58 73
8 12/31/2016 13:15:43 75.08,-142.48 120.83 12/31/2016 13:14:46 75.08,-142.49 120.88 0.27 57
9 12/31/2016 14:04:48 -76.20, 28.42 60.39 12/31/2016 14:05:08 -76.20, 28.38 60.40 1.27 20
10 01/03/2017 05:31:59 75.75, -24.73 119.95 01/03/2017 05:31:26 75.75, -24.65 119.96 2.52 33
11 01/03/2017 06:21:06 -76.74, 146.12 61.16 01/03/2017 06:21:50 -76.75, 146.19 61.22 1.91 44
12 01/05/2017 21:48:23 75.95, 91.76 119.51 01/05/2017 21:48:15 75.95, 91.77 119.52 0.28 8




NCC Satellite Simultaneous Nadir Overpasses (SNOs) Prediction Service
